Zurück zum Katalog

DMSP 5D-2 F14

USA 131

AktivWetterSSO
NORAD 24753·PAYLOAD·🇺🇸 United States

Gestartet Apr 4, 1997 von Vandenberg Space Force Base

Loading…

Nächste Überflüge (nächste 24 Stunden)

TLE

AktuellSource: Space-Track

Epoche: Sep 14, 2026, 22:34 UTC

1 24753U 97012A   26257.94091751  .00000100  00000-0  71516-4 0  9993
2 24753  98.7492 305.0835 0008618 186.9538 173.1518 14.16795149521000

Verfolge DMSP 5D-2 F14 in Echtzeit mit AllMySat

Download on the App Store